Weather History for Pittsburgh Allegheny Co., PA

Change the Weather History Date:

Thursday, September 26, 2013

  Actual Average Record
Temperature  
Mean Temperature 62 °F -  
Max Temperature 73 °F 71 °F 86 °F (1998)
Min Temperature 51 °F 48 °F 39 °F (1989)
Degree Days  
Heating Degree Days 3    
Growing Degree Days 12 (Base 50)    
Moisture  
Dew Point 49 °F    
Average Humidity 64    
Maximum Humidity 96    
Minimum Humidity 34    
Precipitation  
Precipitation 0.00 in - - ()
Sea Level Pressure  
Sea Level Pressure 30.03 in    
Wind  
Wind Speed 2 mph (North)    
Max Wind Speed 6 mph    
Max Gust Speed -    
Visibility 10 miles    
Events      
Averages and records for this station are not official NWS values.
T = Trace of Precipitation, MM = Missing Value Source: NWS Daily Summary

Daily Weather History Graph

Daily Weather History Graph

Search for Another Location

Airport:

Trip Planner

Search our weather history database for the weather conditions in past years. The results will help you decide how hot, cold, wet, or windy it might be!

Date:

Astronomy

Sep. 26, 2013 Rise Set
Actual Time 7:11 AM EDT 7:09 PM EDT
Civil Twilight 6:44 AM EDT 7:36 PM EDT
Nautical Twilight 6:12 AM EDT 8:08 PM EDT
Astronomical Twilight 5:40 AM EDT 8:40 PM EDT
Moon No Moon Rise 2:03 PM EDT (9/26)
Length of Visible Light 12h 52m
Length of Day
11h 58m
Waning Gibbous, 55% of the Moon is Illuminated
Sep 26
Waning Gibbous
Sep 26
Last Quarter
Oct 4
New
Oct 11
First Quarter
Oct 18
Full

Hourly Weather History & Observations

Time (EDT) Temp. Dew Point Humidity Pressure Visibility Wind Dir Wind Speed Gust Speed Precip Events Conditions
12:53 AM 57.9 °F 50.0 °F 75% 29.95 in 10.0 mi Calm Calm - N/A   Clear
1:53 AM 57.0 °F 51.1 °F 81% 29.95 in 10.0 mi Calm Calm - N/A   Clear
2:53 AM 55.9 °F 51.1 °F 84% 29.95 in 8.0 mi Calm Calm - N/A   Clear
3:53 AM 54.0 °F 51.1 °F 90% 29.96 in 10.0 mi Calm Calm - N/A   Clear
4:53 AM 53.1 °F 51.1 °F 93% 29.96 in 10.0 mi NNE 3.5 mph - N/A   Clear
5:53 AM 52.0 °F 50.0 °F 93% 29.98 in 10.0 mi Calm Calm - N/A   Clear
6:53 AM 52.0 °F 50.0 °F 93% 30.00 in 10.0 mi Calm Calm - N/A   Clear
7:53 AM 51.1 °F 50.0 °F 96% 30.01 in 9.0 mi NNE 3.5 mph - N/A   Clear
8:53 AM 54.0 °F 50.0 °F 86% 30.03 in 10.0 mi NNE 3.5 mph - N/A   Clear
9:53 AM 57.9 °F 50.0 °F 75% 30.05 in 10.0 mi ENE 3.5 mph - N/A   Clear
10:53 AM 64.0 °F 48.9 °F 58% 30.05 in 10.0 mi Calm Calm - N/A   Clear
11:53 AM 69.1 °F 50.0 °F 51% 30.05 in 10.0 mi Calm Calm - N/A   Clear
12:53 PM 72.0 °F 48.0 °F 43% 30.04 in 10.0 mi Variable 3.5 mph - N/A   Clear
1:53 PM 72.0 °F 48.9 °F 44% 30.03 in 10.0 mi Calm Calm - N/A   Clear
2:53 PM 73.9 °F 46.0 °F 37% 30.02 in 10.0 mi NNW 5.8 mph - N/A   Clear
3:53 PM 72.0 °F 46.0 °F 40% 30.03 in 10.0 mi North 5.8 mph - N/A   Clear
4:53 PM 73.9 °F 44.1 °F 34% 30.03 in 10.0 mi NNW 3.5 mph - N/A   Clear
5:53 PM 72.0 °F 46.0 °F 40% 30.04 in 10.0 mi NNW 5.8 mph - N/A   Clear
6:53 PM 69.1 °F 46.9 °F 45% 30.06 in 10.0 mi North 3.5 mph - N/A   Clear
7:53 PM 66.9 °F 46.0 °F 47% 30.07 in 10.0 mi NNE 3.5 mph - N/A   Clear
8:53 PM 66.9 °F 46.0 °F 47% 30.08 in 10.0 mi NNE 3.5 mph - N/A   Clear
9:53 PM 63.0 °F 46.0 °F 54% 30.09 in 10.0 mi North 3.5 mph - N/A   Clear
10:53 PM 61.0 °F 48.0 °F 62% 30.09 in 10.0 mi Calm Calm - N/A   Clear
11:53 PM 59.0 °F 50.0 °F 72% 30.09 in 10.0 mi NNE 3.5 mph - N/A   Clear